Portage Invitational 2014

Portage, MI

Portage Invitational 2014 vs Portage Invitational 2013

Aggregate Data Points
Difference This Meet That Meet
Overall Athletes -2102 1943 4045
Overall Average -1:40.60 20:19.48 22:00.08
1st-10th Place -22.27 15:22.40 15:44.67
1st-25th Place -18.28 15:39.60 15:57.88
1st-50th Place -16.04 15:53.20 16:09.24
1st-100th Place -13.94 16:09.76 16:23.70
Common Athletes -- -- 1091
Ran Faster 563 827 264
Ran Season Best 93 244 151
Average Time -35.32 19:44.82 20:20.14
Median Time -35.40 19:19.00 19:54.40
Middle 80% Times -34.28 19:31.72 20:06.00
Top 10% Times -25.45 16:22.86 16:48.31
Top 25% Times -31.92 16:54.97 17:26.90
Top 50% Times -34.17 17:42.01 18:16.18
Bottom 50% Times -36.40 21:45.46 22:21.85
Bottom 25% Times -41.77 23:11.85 23:53.61
Bottom 10% Times -53.64 24:54.24 25:47.88
Average Difference -35.32 -- --
Median Difference +29.00 -- --
Middle 80% Difference -33.13 -- --
Top 10% Difference -19.32 -- --
Top 50% Difference -30.97 -- --
Top 25% Difference -27.14 -- --
Top 50% Difference -30.97 -- --
Bottom 50% Difference -39.54 -- --
Bottom 25% Difference -47.67 -- --
Bottom 10% Difference -1:08.44 -- --

Performances of Common Athletes
Athlete Team Difference This Meet That Meet
Grant Fisher Grand Blanc -27.80 14:43.00 15:10.80
Anthony Berry Traverse City Central -52.70 15:22.00 16:14.70
Connor Wuori Portage Central -33.40 15:23.00 15:56.40
Jesse Hersha Concord -13.40 15:23.00 15:36.40
Isaac Harding Rockford -49.60 15:32.00 16:21.60
Logan Wetzel Saline -24.30 15:36.00 16:00.30
Zac Benham Mason County Central +10.00 15:48.00 15:38.00
Kevin Hall Saline -23.10 15:40.00 16:03.10
Matt Thomas Port Huron Northern -6.50 15:44.00 15:50.50
Skyler Arthur St. Joseph -58.10 15:44.00 16:42.10
Austin Sargent Cedar Springs +2.80 15:53.00 15:50.20
Lucas Arrivo Ann Arbor Pioneer +23.80 16:15.00 15:51.20
Logan Jurgens Grandville Calvin Christian -27.10 15:53.00 16:20.10
Abe Visser Grandville Calvin Christian -35.30 15:55.00 16:30.30
Josh Nickerson Hartland -1:27.50 15:57.00 17:24.50
Ryan Talbott Pinckney -59.20 15:57.00 16:56.20
Bobby Haskin Grand Rapids West Catholic -27.60 15:57.00 16:24.60
Walker Priest Shepherd -51.60 15:57.00 16:48.60
Damien Halverson Hesperia -16.10 15:59.00 16:15.10
Brad Mallory Port Huron Northern -14.20 16:00.00 16:14.20
Jake Keena Kingsley +33.40 16:34.00 16:00.60
Jacob Pettinga Saugatuck -28.80 16:03.00 16:31.80
Cam McAuliffe Traverse City Central -6.90 16:06.00 16:12.90
James McCann Holland Black River -1:43.30 16:07.00 17:50.30
Zack Richards Comstock +50.30 16:58.00 16:07.70
Ethan Taljonick Clio -28.50 16:08.00 16:36.50
Mikey Varacalli Linden -38.50 16:09.00 16:47.50
Arik Lafave Hesperia -1:06.80 16:09.00 17:15.80
Keaton Smith Whitehall -14.90 16:10.00 16:24.90
Austin Wicker Pinckney -40.60 16:11.00 16:51.60
Isaac Harris Pinckney -59.00 16:12.00 17:11.00
Justin Varineau Grand Rapids Christian -46.60 16:12.00 16:58.60
Ryan Torok Linden -53.50 16:12.00 17:05.50
Paul Burke Rockford -31.40 16:14.00 16:45.40
David Trimas Chelsea +10.40 16:25.00 16:14.60
Christian Hubaker Grand Ledge -1:12.90 16:15.00 17:27.90
Matt Smith Grandville -25.80 16:16.00 16:41.80
Matthew Levitt East Grand Rapids -4.80 16:17.00 16:21.80
Jesse Saxton Grant -45.40 16:17.00 17:02.40
Brayden Huddleston Benzie Central -30.90 16:17.00 16:47.90
Andrew Wittland Grand Rapids Forest Hills Northern -5.20 16:18.00 16:23.20
Garett Smith Hudsonville -28.20 16:19.00 16:47.20
Nick Hirschenberger Traverse City West -29.50 16:20.00 16:49.50
Brock Eves Hillsdale Academy -13.80 16:21.00 16:34.80
Evan Koerschner Saline -49.10 16:22.00 17:11.10
Austen Mandernach Grand Blanc -1:16.30 16:22.00 17:38.30
Nick Jewell St. Joseph -32.60 16:22.00 16:54.60
Benny BriseƱo Grand Rapids Christian -10.60 16:22.00 16:32.60
Erik Edwards St. Joseph +4.60 16:28.00 16:23.40
Grant Gabriel Rockford -22.10 16:24.00 16:46.10
Kael Fineout Okemos -13.20 16:24.00 16:37.20
Jacob Hall Concord -36.10 16:24.00 17:00.10
Gannon Foley Portage Central -1:01.60 16:27.00 17:28.60
Grayson Harding Rockford -31.30 16:28.00 16:59.30
Cole Hamilton Fremont -1:33.00 16:28.00 18:01.00
Dylan Mosher Clio -23.80 16:28.00 16:51.80
Ryan Gibson Jackson Lumen Christi -34.00 16:28.00 17:02.00
Joey Dawson Richland Gull Lake -53.70 16:29.00 17:22.70
Tanner Rydleski St. Joseph -15.30 16:29.00 16:44.30
Kyler Phillips Clare +1.30 16:31.00 16:29.70
Zach Terpstra Grand Rapids Christian -16.90 16:30.00 16:46.90
Andrew Mitchell Brighton -35.20 16:31.00 17:06.20
Jack Twarozynski Grand Ledge -9.80 16:31.00 16:40.80
Jonathan Voth Grand Blanc -1:03.70 16:32.00 17:35.70
Anthony Wohlfeil Monroe -38.00 16:32.00 17:10.00
Noah Kramer Hartland -1:27.20 16:32.00 17:59.20
Brandon Urban Carleton Airport -57.70 16:32.00 17:29.70
Kevin Spicer-torres Clare -40.10 16:33.00 17:13.10
Brendan Daly Watervliet -53.20 16:33.00 17:26.20
Colin Mcnally Ann Arbor Gabriel Richard +1.20 16:35.00 16:33.80
Jimmy Seekamp Traverse City West -39.20 16:34.00 17:13.20
Nathan Goschka Grand Ledge -1:17.20 16:35.00 17:52.20
Tyler Travis Shepherd -12.90 16:36.00 16:48.90
Stone Mathers Ann Arbor Pioneer -1:44.20 16:37.00 18:21.20
Mitch Kolito DeWitt -15.70 16:37.00 16:52.70
Braxton Snuffer Muskegon Western Michigan Christian -54.60 16:37.00 17:31.60
Drake Gauthier Grand Blanc -28.00 16:38.00 17:06.00
Carson Alexander Okemos -1:17.10 16:38.00 17:55.10
Joe Vermilye Chelsea -30.70 16:39.00 17:09.70
Peter Pelon Ionia -46.50 16:39.00 17:25.50
Brennan Burk Hanover-Horton -20.40 16:39.00 16:59.40
Chase Schweyer Pinckney -1:26.40 16:40.00 18:06.40
Patrick Jonker Grand Rapids Christian +4.80 16:45.00 16:40.20
Joe Hughes Traverse City West -29.90 16:41.00 17:10.90
Noah Robotham Benzie Central -22.90 16:41.00 17:03.90
Max Smith Newaygo -19.50 16:41.00 17:00.50
Kyle Chamberlain Hudsonville -40.30 16:42.00 17:22.30
Doug Hollett Kalamazoo Christian -2.80 16:42.00 16:44.80
Nick Berry Brighton -33.50 16:43.00 17:16.50
Colin Reichenbach Rockford -6.10 16:43.00 16:49.10
Kyle Bailey Benzie Central -21.80 16:43.00 17:04.80
Zachary Pettinga Saugatuck -1:09.20 16:43.00 17:52.20
Jim Vandyke Grand Rapids Christian +1.80 16:45.00 16:43.20
Justin Smith Bangor -1:51.70 16:44.00 18:35.70
Jordan Anderson Bear Lake -27.10 16:44.00 17:11.10
Ramadhan Mohamed East Kentwood +40.00 17:25.00 16:45.00
Kyle Barger Traverse City Central -2:10.70 16:46.00 18:56.70
Leland Robertson Grand Rapids Christian -1:06.40 16:46.00 17:52.40
Matt Ring Schoolcraft -11.60 16:46.00 16:57.60
Adam Audet Temperance-Bedford -42.80 16:47.00 17:29.80
Dylan Sykes Grand Rapids Catholic Central -39.00 16:47.00 17:26.00
Luke Schwass Ludington -20.00 16:47.00 17:07.00
Nicolas Arrivo Ann Arbor Pioneer -47.30 16:48.00 17:35.30
Brendan Nesbitt Bay City Western -21.40 16:48.00 17:09.40
Josiah Humphrey Saline -40.30 16:48.00 17:28.30
Alex Dennis Whitehall -10.00 16:48.00 16:58.00
Kody Yorton Clio -49.70 16:48.00 17:37.70
Jake Williams Benzie Central -33.10 16:48.00 17:21.10
Nick Butch Saugatuck -55.70 16:48.00 17:43.70
Samuel Cayen Saline -1:11.10 16:49.00 18:00.10
Noah Dawn Monroe -58.70 16:49.00 17:47.70
Zack Murphy Coldwater -1:35.70 16:49.00 18:24.70
Luke Rotarius Hartland -5.00 16:50.00 16:55.00
Chance Miller Hastings -1.00 16:50.00 16:51.00
Ryan Silvestri Napoleon -24.70 16:50.00 17:14.70
Will Kellam Portage Northern -58.50 16:51.00 17:49.50
Tim Mayer Ionia -50.30 16:51.00 17:41.30
Garett Nelson Clio -31.80 16:51.00 17:22.80
Brendan Lenhardt Grand Rapids Forest Hills Eastern -18.00 16:51.00 17:09.00
Caleb Barker Pewamo-Westphalia -1.30 16:51.00 16:52.30
Jon Koning Portage Central -1:36.90 16:52.00 18:28.90
Miles Mcdonald Hartland -1:15.20 16:52.00 18:07.20
Chris Franks Clio -1:08.00 16:52.00 18:00.00
Austin Shepherd Hanover-Horton -4.40 16:52.00 16:56.40
Bailey Paulus Port Huron Northern -47.70 16:53.00 17:40.70
Dario Potter Ann Arbor Pioneer -43.30 16:53.00 17:36.30
Lucas Crisanti Hanover-Horton -14.00 16:53.00 17:07.00
Connor Parrell Brighton -14.70 16:54.00 17:08.70
Gregory Lingle Temperance-Bedford -1:01.00 16:54.00 17:55.00
Nolan Meister East Kentwood -43.90 16:54.00 17:37.90
Derek Sanchez Hudsonville -1:27.00 16:54.00 18:21.00
Mitchell Parsons Grandville +28.20 17:23.00 16:54.80
Nate Jones Battle Creek Lakeview -1:10.00 16:55.00 18:05.00
Ben Haupt Clare -22.50 16:55.00 17:17.50
Cole Trevino Bath -1:15.00 16:55.00 18:10.00
Aaron Strieff Zeeland West +1:07.90 18:03.00 16:55.10
Matthew Zerfas Fremont +5.50 17:01.00 16:55.50
Bryan Adamovicz Saline -31.10 16:56.00 17:27.10
Tom Anderson Hartland -32.30 16:56.00 17:28.30
Kiehl Smith Jonesville -1:39.00 16:56.00 18:35.00
Landrum Neer Culver Academies -19.00 16:57.00 17:16.00
Kory Johnson Brownstown Woodhaven -34.20 16:58.00 17:32.20
Sam Stitt Fremont -53.90 16:58.00 17:51.90
Justin Jones Cedar Springs -21.90 16:58.00 17:19.90
Justin Detgen Concord -1:04.00 16:58.00 18:02.00
Joseph Britt Holland Black River +16.20 17:15.00 16:58.80
Kirk Dickson Rockford -1:11.50 16:59.00 18:10.50
Roger Champion Whitehall -9.50 16:59.00 17:08.50
Ian Otto Portage Northern -1:08.70 17:00.00 18:08.70
Jordan Bennett Caledonia -36.90 17:00.00 17:36.90
Tyler McCartney Grand Ledge -30.90 17:01.00 17:31.90
Michael Bank Carleton Airport -6.50 17:01.00 17:07.50
Jeffery Crouch Benzie Central -56.10 17:01.00 17:57.10
Easton Schultz East Grand Rapids -40.30 17:02.00 17:42.30
Garrett Mcpeek Brighton -1:02.80 17:03.00 18:05.80
Cody Clemens Portage Northern -1:12.30 17:04.00 18:16.30
Perry Carter Wayland Union -1:03.30 17:04.00 18:07.30
Zach Mckenzie Dexter -1:05.70 17:05.00 18:10.70
Brian Stubelt Portage Central -53.40 17:05.00 17:58.40
Antonio Wenglikowski Bay City Western -27.80 17:05.00 17:32.80
Jacob Houser Zeeland West -16.90 17:05.00 17:21.90
Nick Angerman Ann Arbor Skyline -47.00 17:06.00 17:53.00
Brent Petersen Grand Haven -44.20 17:06.00 17:50.20
Kenton Rossi East Grand Rapids -1:26.70 17:06.00 18:32.70
Marshal Rademacer Ionia +17.00 17:24.00 17:07.00
Zach Dunlap Culver Academies -41.40 17:07.00 17:48.40
Jacob Johnson Ann Arbor Pioneer -43.00 17:07.00 17:50.00
Michael Uglietta East Grand Rapids -51.60 17:07.00 17:58.60
Joey Hutchins Concord -57.30 17:07.00 18:04.30
Jordan Diephouse Grand Haven -39.10 17:08.00 17:47.10
Andrew Polasek Newaygo -20.20 17:08.00 17:28.20
Angelo Leon East Kentwood -1:12.40 17:09.00 18:21.40
Flynn Darby Caledonia -27.00 17:09.00 17:36.00
Jordan Pattison Caledonia -1:22.10 17:09.00 18:31.10
Will Jibson Ann Arbor Pioneer -44.90 17:09.00 17:53.90
Sam Johnson Hastings -14.20 17:09.00 17:23.20
Chase Smith Clio -59.70 17:09.00 18:08.70
Ben Geer Mason -18.00 17:09.00 17:27.00
Jarek Brower Zeeland West -18.90 17:09.00 17:27.90
Tim Osborne Brighton -1:28.50 17:10.00 18:38.50
Andrew Goodspeed Fremont -1:16.30 17:11.00 18:27.30
Brendan McClanahan Temperance-Bedford -1:32.40 17:12.00 18:44.40
Ross Helmer Hudsonville -30.60 17:12.00 17:42.60
John Miles Grand Haven -22.90 17:13.00 17:35.90
Will Warmoth Spring Lake -39.80 17:13.00 17:52.80
Adam Clemens Coldwater -42.70 17:13.00 17:55.70
Liam Heaney Chelsea -48.10 17:13.00 18:01.10
Julian Borst Kalamazoo Loy Norrix -1:28.70 17:14.00 18:42.70
Isaiah Fox Grand Rapids Catholic Central -40.20 17:14.00 17:54.20
Robert Conner Monroe Jefferson -21.80 17:14.00 17:35.80
Marc Lopez Dexter -1:05.40 17:15.00 18:20.40
Spencer Leist Coldwater -37.10 17:15.00 17:52.10
Travis Sutton Jonesville -33.30 17:15.00 17:48.30
Ronnie Collins Hastings +6.60 17:22.00 17:15.40
Brenden Jones Holland Black River +4.50 17:20.00 17:15.50
Luke Peterson Holland Christian -58.60 17:16.00 18:14.60
Ben Jensen Ludington -51.10 17:16.00 18:07.10
Eric Poth Marlette -24.60 17:16.00 17:40.60
Zach Abbee Hanover-Horton -16.90 17:16.00 17:32.90
Austin Brittain Breckenridge -31.10 17:17.00 17:48.10
Drew Donovan Celina +13.30 17:31.00 17:17.70
Joe Brown Saugatuck -20.60 17:18.00 17:38.60
Nick Johnson Grand Haven -19.60 17:19.00 17:38.60
Evan Vorwerck Bay City Western -1.50 17:19.00 17:20.50
Kagen Griffith Linden +2.30 17:22.00 17:19.70
Jordan Zamarron Ionia -14.60 17:20.00 17:34.60
Zach Duff Grand Haven -28.40 17:21.00 17:49.40
Walker Child St. Clair -15.20 17:21.00 17:36.20
Orlando Carrion Saugatuck -1:16.40 17:21.00 18:37.40
Elliot Kadrofske Okemos -1:01.60 17:22.00 18:23.60
Alex Eby Carleton Airport -42.00 17:22.00 18:04.00
Wayne Matunas Portage Northern -37.20 17:23.00 18:00.20
David McManus Hudsonville -2:30.40 17:24.00 19:54.40
Jordan Query Traverse City Central -0.80 17:24.00 17:24.80
Sahil Dagli Okemos -41.70 17:24.00 18:05.70
Nick Macgeorge East Grand Rapids -24.70 17:24.00 17:48.70
Connor Schwartz Hudsonville Unity Christian -8.70 17:24.00 17:32.70
Travon Blakely Comstock -1:04.60 17:24.00 18:28.60
Perrin Kirwin Walkerville -2:01.90 17:24.00 19:25.90
Zach Dittenbir Traverse City West -1:38.30 17:25.00 19:03.30
Andrew Hutchinson Shepherd -18.80 17:25.00 17:43.80
Matthew Lezon Temperance-Bedford -35.90 17:26.00 18:01.90
Jeremy Pletcher Wayland Union -30.20 17:26.00 17:56.20
Billy Dowd Napoleon -21.10 17:26.00 17:47.10
Daniel Mikovits Concord -1:41.60 17:26.00 19:07.60
Stephen Hoffman East Grand Rapids +7.00 17:35.00 17:28.00
Nate Schipper Hudsonville -29.20 17:28.00 17:57.20
Cooper Thieme Grand Rapids Forest Hills Eastern +16.20 17:45.00 17:28.80
Luke Bottomley Dexter -39.30 17:30.00 18:09.30
Luis Dekryger Grand Rapids South Christian -24.50 17:30.00 17:54.50
Grant Hengesbach Pewamo-Westphalia -56.80 17:30.00 18:26.80
Josh Ball Grand Rapids Forest Hills Central -31.60 17:31.00 18:02.60
Tyler Sepanik Traverse City Central -18.40 17:31.00 17:49.40
Roman Mitchell Celina -16.70 17:31.00 17:47.70
Trevor Sepanik Traverse City Central -1:43.90 17:31.00 19:14.90
Jacob Lyons Richland Gull Lake -1:41.80 17:31.00 19:12.80
Elliott Hanke Bridgman -24.80 17:31.00 17:55.80
Brandon Owen Bridgman -11.80 17:31.00 17:42.80
Karl Hanke Bridgman -52.60 17:31.00 18:23.60
Matt Schmidt Spring Lake -1:22.90 17:32.00 18:54.90
Kyle Hamilton Pinckney -21.70 17:33.00 17:54.70
Jack Milimier Richland Gull Lake -52.80 17:33.00 18:25.80
Matt Sowles Coldwater -1:42.20 17:33.00 19:15.20
Dominick Hentemann Grand Haven -2:08.50 17:34.00 19:42.50
Levi Cole Bangor -1:55.80 17:34.00 19:29.80
Zach Huber Temperance-Bedford -46.40 17:35.00 18:21.40
Jarod Cobb Ludington -44.80 17:35.00 18:19.80
Andrew Joslin Shepherd -53.00 17:35.00 18:28.00
Sam Traver Potterville +1.90 17:37.00 17:35.10
Ryan Wasilewski Muskegon Mona Shores -1:23.00 17:36.00 18:59.00
Zach Capulong Jenison -8.20 17:36.00 17:44.20
Case Trevino Bath -51.50 17:36.00 18:27.50
Patrick Lynch Watervliet -19.20 17:36.00 17:55.20
Alex Hoop Jackson Lumen Christi -57.30 17:36.00 18:33.30
Patrick Cecil St. Joseph Lake Michigan Catholic -17.70 17:36.00 17:53.70
Bryce Thelen Pewamo-Westphalia -32.90 17:37.00 18:09.90
Taylor Terborg Grandville Calvin Christian -0.90 17:37.00 17:37.90
Jon Haadsma Battle Creek Lakeview +7.40 17:45.00 17:37.60
Josh Bostwick Brighton -35.60 17:38.00 18:13.60
Collin Higgins St. Clair +9.60 17:48.00 17:38.40
Harry Hevelhurst Jenison -34.10 17:39.00 18:13.10
Luke Sprinkle Kalamazoo Loy Norrix -46.80 17:39.00 18:25.80
Faruq Schieber Kalamazoo Central -1:30.20 17:39.00 19:09.20
Brian Connelly Jenison -41.40 17:39.00 18:20.40
Alex Kean Clio -50.40 17:39.00 18:29.40
Brandon Harthorn Cedar Springs -1:24.80 17:39.00 19:03.80
Nolan Asiala Mason County Central -37.60 17:39.00 18:16.60
Jonathan Zuiderveen Wayland Union -37.90 17:40.00 18:17.90
Kurt Egelhaaf St. Joseph -25.60 17:40.00 18:05.60
Kole Hanke Bridgman -1:28.50 17:40.00 19:08.50
Joe Abel Carleton Airport +31.90 18:12.00 17:40.10
Landon Dysart Capital Homeschool +7.70 17:48.00 17:40.30
Micah Meindertsma Caledonia -1:32.20 17:41.00 19:13.20
Drew Daenzer Traverse City West -1:30.10 17:41.00 19:11.10
Tyler Lewis Vicksburg -1:08.30 17:42.00 18:50.30
Ben Nicholas Dexter +3.70 17:46.00 17:42.30
Lucas Piekarski Spring Lake -6.60 17:43.00 17:49.60
Matt Mathis Remus Chippewa Hills -2:58.30 17:43.00 20:41.30
Riley Vanpelt New Buffalo -56.10 17:43.00 18:39.10
Valentin Casiano Watervliet +13.50 17:57.00 17:43.50
Tyler Poel Grand Rapids Christian +2.40 17:46.00 17:43.60
Conner Silvestri Napoleon +3.30 17:47.00 17:43.70
Sky Christenson Whitehall -29.90 17:44.00 18:13.90
Tony Bomia Temperance-Bedford -1:17.50 17:45.00 19:02.50
Brandon Van Oosten Battle Creek Lakeview +2.80 17:48.00 17:45.20
Shayden Fisher Grandville -5.80 17:46.00 17:51.80
Eric Farhadi Caledonia -11.80 17:46.00 17:57.80
Nate Shay Dexter -27.80 17:46.00 18:13.80
Amos Leach Berrien Springs -1:45.20 17:46.00 19:31.20
Gabe Lamer Grandville Calvin Christian -1:14.60 17:46.00 19:00.60
Tom Terns Brighton +28.70 18:15.00 17:46.30
Caleb Keyes Brownstown Woodhaven -27.70 17:47.00 18:14.70
Andrew Lanning Grand Rapids South Christian -55.20 17:47.00 18:42.20
Shayne Palmer Napoleon -32.60 17:47.00 18:19.60
Shawn Roncka Grandville -29.50 17:48.00 18:17.50
Jordan Parkinson Coldwater -1:34.60 17:48.00 19:22.60
Michael Klein Grand Rapids Catholic Central -1:03.10 17:48.00 18:51.10
Benn Starr Grant +17.60 18:06.00 17:48.40
Hunter Perrin Kalamazoo Christian +22.20 18:11.00 17:48.80
Ethan Grayeb Grand Rapids Forest Hills Central -32.80 17:49.00 18:21.80
Corey Robinson Whitehall -7.50 17:49.00 17:56.50
Rolando Hernandez Eau Claire -1:21.80 17:49.00 19:10.80
Will Hough Richland Gull Lake -38.10 17:50.00 18:28.10
Elliott Lipe Bath -40.20 17:50.00 18:30.20
Kelton Eldred Blanchard Montabella +2.70 17:53.00 17:50.30
Michael Cron Celina -42.60 17:51.00 18:33.60
Mitch Lange Mason County Central +29.60 18:21.00 17:51.40
Christian Deblois Brownstown Woodhaven -48.50 17:52.00 18:40.50
Brendan Stevens Battle Creek Lakeview -3:48.30 17:52.00 21:40.30
Adam Maxwell Kentwood Grand River Preparatory -58.10 17:52.00 18:50.10
Allan Dowling Hanover-Horton -39.30 17:52.00 18:31.30
Alec Badgley Potterville -51.50 17:52.00 18:43.50
Zeke Clark Muskegon Mona Shores -1:20.20 17:53.00 19:13.20
Benjamin Deuling Fremont -1:48.10 17:53.00 19:41.10
Ethan Aerts Coldwater -5.10 17:54.00 17:59.10
Chase Field Clare -52.30 17:54.00 18:46.30
Adam Curtis Big Rapids Crossroads Charter -44.00 17:54.00 18:38.00
Evan Rieth Three Oaks-River Valley -24.80 17:54.00 18:18.80
Sam Putzke Saugatuck -36.00 17:55.00 18:31.00
Jeremy Bond Charyl Stockwell Academy +5.30 18:01.00 17:55.70
Nathan Mulder Holland Christian -26.30 17:56.00 18:22.30
Logan Andersen Monroe Jefferson -1:39.00 17:56.00 19:35.00
Ben DeMass Capital Homeschool -43.00 17:56.00 18:39.00
Eldon Garvelink Saugatuck -1:12.30 17:56.00 19:08.30
Mitch Hiller Jenison -29.50 17:57.00 18:26.50
Will Jackson Hartland -11.50 17:57.00 18:08.50
Bryce Messmann Ann Arbor Gabriel Richard -2:26.20 17:57.00 20:23.20
Durecki Richard Kingsley -8.80 17:58.00 18:06.80
Carson Finch Bangor -58.50 17:58.00 18:56.50
Joel Johnson Napoleon -1:16.10 17:58.00 19:14.10
Brandon Born Kalamazoo Homeschool -1:04.10 17:58.00 19:02.10
Nathan Fletcher Fremont -2:21.00 17:59.00 20:20.00
Colin Rypma Grandville Calvin Christian -1:22.00 17:59.00 19:21.00
Kellen Rau Grandville +15.90 18:15.00 17:59.10
Ben Olsen Coloma -17.30 18:00.00 18:17.30
Kyle Venne Hesperia -21.70 18:00.00 18:21.70
Sarah Kettel Capital Homeschool -53.00 18:01.00 18:54.00
Chad Downey Celina -9.50 18:01.00 18:10.50
John Hughes Vicksburg -27.80 18:01.00 18:28.80
Cameron Mahlich Ionia -26.50 18:01.00 18:27.50
Noah Heckenlively Hillsdale Academy -1:02.10 18:01.00 19:03.10
Mathew Koenig Bay City Western +13.10 18:15.00 18:01.90
Stephen McGraw Grandville +40.10 18:42.00 18:01.90
Joe Negen Spring Lake -1:40.00 18:03.00 19:43.00
Kyle Halquist Kentwood Grand River Preparatory -50.00 18:03.00 18:53.00
Michael Heppe Hopkins -16.10 18:03.00 18:19.10
Zach Feyen Caledonia +4.40 18:08.00 18:03.60
Rachel Bonner Port Huron -1:27.00 18:04.00 19:31.00
Jacob Lesinski Ludington -1:10.70 18:04.00 19:14.70
Brad Hotovy Allendale -35.00 18:04.00 18:39.00
Branley Mafuta Bath -22.20 18:04.00 18:26.20
Palmer Cleaver Kalamazoo Hackett -2:24.80 18:04.00 20:28.80
Jacob Hagenbuch Mendon -1:03.50 18:04.00 19:07.50
Jack Greenman Battle Creek St. Philip -3:32.80 18:05.00 21:37.80
Pavan Dave Brownstown Woodhaven -25.80 18:06.00 18:31.80
Alex Giles Breckenridge -1:10.20 18:06.00 19:16.20
Morgan Posthuma Grand Rapids Forest Hills Northern +30.00 18:37.00 18:07.00
Cameron Kyser Spring Lake -1:31.10 18:08.00 19:39.10
Andrew Savel Carleton Airport -50.20 18:08.00 18:58.20
Jobe Kerr Watervliet -52.40 18:08.00 19:00.40
Jake Schmitt Richland Gull Lake -1:24.60 18:09.00 19:33.60
Sam Austin Allendale -26.30 18:09.00 18:35.30
Brady Reynolds Centreville +29.60 18:39.00 18:09.40
Tim Kinney Constantine -1:48.50 18:10.00 19:58.50
Noah Lubben Grandville Calvin Christian -1:15.30 18:10.00 19:25.30
Cole Menck Lawton +25.90 18:36.00 18:10.10
Jacob Schantz Grand Rapids West Catholic -1:02.20 18:11.00 19:13.20
Devin Matheny Schoolcraft -38.30 18:11.00 18:49.30
Ryan Vanappledorn Holland Christian -55.00 18:12.00 19:07.00
Cody Ladd Schoolcraft -26.60 18:12.00 18:38.60
Zane Brooks Benzie Central +38.60 18:51.00 18:12.40
Ashley Ko Traverse City Central -17.00 18:13.00 18:30.00
Preston Mills Holland Black River -1:41.30 18:13.00 19:54.30
Kyle Coulter Bath -50.10 18:13.00 19:03.10
Dyllon McLouth Bear Lake -1:08.20 18:13.00 19:21.20
Jason Klaasen Hudsonville Unity Christian +4:37.40 22:51.00 18:13.60
Kelli Jackson Hudsonville -19.00 18:14.00 18:33.00
Jason Gilder Grand Rapids South Christian -24.70 18:14.00 18:38.70
Mitchell Harvey Grant -34.10 18:14.00 18:48.10
Grant Reene Frankenmuth -34.80 18:14.00 18:48.80
Gerardo Belmares Lawrence -1:23.70 18:14.00 19:37.70
Hunter VanKlompenberg Grandville Calvin Christian +18.60 18:33.00 18:14.40
Alex Beauchamp Hastings -34.00 18:15.00 18:49.00
Gavin Marr Breckenridge -1:04.10 18:15.00 19:19.10
Nathan Swartz Marcellus -42.70 18:16.00 18:58.70
Kerianne Schoff Rockford +2:17.00 20:34.00 18:17.00
Gillian Walter Saline +39.00 18:56.00 18:17.00
Jon Quist Hudsonville Unity Christian -1:36.60 18:17.00 19:53.60
Tristin Ward Ionia -14.90 18:17.00 18:31.90
Josiah Brouwer Grand Rapids South Christian +3.60 18:21.00 18:17.40
Levi Prater Leslie +39.50 18:57.00 18:17.50
Kevin DeBruin Grand Rapids South Christian -24.00 18:18.00 18:42.00
Matt Lamontagne St. Clair -28.20 18:19.00 18:47.20
Miguel Flores Hartford -1.30 18:19.00 18:20.30
Brant McKay Newaygo -1:24.50 18:19.00 19:43.50
Jared Zink Jenison +1.30 18:21.00 18:19.70
Mitchell Henschel Chelsea -2:08.80 18:20.00 20:28.80
Andrew Johnson Three Rivers -2.40 18:20.00 18:22.40
Nick Hayward Schoolcraft -52.10 18:20.00 19:12.10
Shane Gutkowski Frankenmuth -36.70 18:20.00 18:56.70
Rohan Dandavati Holland Black River -2:37.10 18:20.00 20:57.10
Ian Fox Flint Powers Catholic -1:04.20 18:21.00 19:25.20
Owen Webb Hillsdale Academy -28.10 18:21.00 18:49.10
Liam Perdue Grand Rapids Catholic Central -2:04.80 18:22.00 20:26.80
Nick Dankowski Allendale -2:09.00 18:22.00 20:31.00
Austin Yunker Mendon -39.90 18:22.00 19:01.90
Riley Waterman Schoolcraft -56.50 18:23.00 19:19.50
Tyler Vermillion Potterville -44.80 18:23.00 19:07.80
Will Cadwell South Haven -53.80 18:24.00 19:17.80
Cole Verrett Bear Lake +6.30 18:31.00 18:24.70
Cameron Bitzer Monroe -1:41.10 18:25.00 20:06.10
Stosh Tustin Richland Gull Lake -2:42.20 18:25.00 21:07.20
Ben Kole Grand Rapids NorthPointe Christian -0.60 18:25.00 18:25.60
Ryan Waggoner Flint Powers Catholic +28.10 18:54.00 18:25.90
Dylan Alexanderson Three Rivers +10.00 18:36.00 18:26.00
Sam Powell Muskegon Mona Shores -3:59.00 18:26.00 22:25.00
Miguel Santos Kalamazoo Loy Norrix -2:26.80 18:26.00 20:52.80
Josh Carpenter Kalamazoo Hackett -1:19.50 18:26.00 19:45.50
Sam Richardson Breckenridge +27.10 18:54.00 18:26.90
Sam Sartin Marlette +16.30 18:44.00 18:27.70
Travis Grube Kalamazoo Loy Norrix -2:54.90 18:28.00 21:22.90
Dakota Bostic Carleton Airport -1:03.70 18:28.00 19:31.70
Derek Huffman Wayland Union -1:04.20 18:28.00 19:32.20
Brian Keillor Byron Center -1:03.70 18:28.00 19:31.70
Jordan Jones Eau Claire -43.90 18:28.00 19:11.90
Travis Klitchman Eau Claire -1:12.10 18:28.00 19:40.10
Kristopher Cavender Jackson Lumen Christi +4.40 18:33.00 18:28.60
Hannah Cummings Saline -19.00 18:29.00 18:48.00
Sam Guikema Grand Rapids South Christian -9.40 18:29.00 18:38.40
Nick Mathis Remus Chippewa Hills -19.60 18:29.00 18:48.60
Eric Terhaar Zeeland West -1:25.90 18:29.00 19:54.90
Grant Taylor Capital Homeschool -2:29.80 18:29.00 20:58.80
Sean Toohey West Michigan Aviation Academy -2:03.30 18:30.00 20:33.30
Jacob Walters Shepherd -53.90 18:30.00 19:23.90
Austin Boynton Muskegon Mona Shores +0.30 18:31.00 18:30.70
Brendan Zauel Ann Arbor Pioneer -27.60 18:32.00 18:59.60
Zach Schmitz Pewamo-Westphalia -20.20 18:32.00 18:52.20
Josh Fitch Frankenmuth +40.70 19:13.00 18:32.30
Mike Stinchcomb Portage Northern -7.60 18:34.00 18:41.60
Charles Surratt Hastings -36.30 18:34.00 19:10.30
Warren Krettek Bridgman -57.00 18:34.00 19:31.00
Nolan Troyer Centreville -1:22.00 18:34.00 19:56.00
Kyle Smith Benzie Central +7.70 18:42.00 18:34.30
Cameron Andrews Kalamazoo Central +1:05.10 19:40.00 18:34.90
Kelli Nesky Hudsonville Unity Christian +15.00 18:50.00 18:35.00
Jacob Evans Schoolcraft -33.00 18:35.00 19:08.00
Jakob Roberts Concord -3:41.00 18:35.00 22:16.00
Jasmine Harper Clare +1:52.00 20:28.00 18:36.00
Nolan Vanderzwaag Holland Christian -1:12.50 18:36.00 19:48.50
Tyler Frisbie Mendon -47.40 18:36.00 19:23.40
Brock Simon Pewamo-Westphalia -34.80 18:37.00 19:11.80
Nathan Hartges Capital Homeschool +28.70 19:06.00 18:37.30
Troy Davis Leslie + 18:38.00 18:38.00
Bailey Johnson Jenison -5.00 18:38.00 18:43.00
Will Libs Ann Arbor Gabriel Richard -29.40 18:38.00 19:07.40
Isaak Biddle Frankenmuth -1:26.40 18:38.00 20:04.40
Grant Bradman Grand Rapids South Christian +6.60 18:45.00 18:38.40
Austin Salome Comstock +5.40 18:44.00 18:38.60
Charles Goole Lawton +8.20 18:47.00 18:38.80
Connor Green East Kentwood -31.30 18:40.00 19:11.30
Jacob Shoop Mason County Central -0.90 18:40.00 18:40.90
Tyler Sheteron Centreville -1:08.90 18:40.00 19:48.90
Matt Proegler Chelsea +9.10 18:50.00 18:40.90
Brett Cribley Capital Homeschool -53.70 18:41.00 19:34.70
Grant Fedewa Capital Homeschool -1:13.90 18:41.00 19:54.90
Collin Neilson Hesperia +7.80 18:49.00 18:41.20
Ben Hofstra Kentwood Grand River Preparatory -33.50 18:42.00 19:15.50
Steven Henley Hopkins -39.30 18:42.00 19:21.30
Carson Nieuwenhuis Wayland Union +23.80 19:06.00 18:42.20
Michael Johnston Culver Academies -11.50 18:43.00 18:54.50
Adam Schwanzl Kalamazoo Hackett -1:40.10 18:43.00 20:23.10
Andrew Ashbaugh Remus Chippewa Hills -2:38.80 18:44.00 21:22.80
Colin Gonia Monroe Jefferson -3:00.30 18:44.00 21:44.30
Alexis Miller Grand Rapids South Christian +46.00 19:31.00 18:45.00
Erin O'Keefe Spring Lake -52.00 18:45.00 19:37.00
Jessica Harris Whitehall -46.00 18:45.00 19:31.00
Zach Yarger Potterville -15.60 18:45.00 19:00.60
Joe Puzycki Stevensville-Lakeshore +38.40 19:25.00 18:46.60
Alyssa Sanchez Hudsonville +48.00 19:35.00 18:47.00
Zach Owen Leslie -11.40 18:47.00 18:58.40
Ryan Wunderly Kalamazoo Christian -10.20 18:47.00 18:57.20
Mason Witte Hudsonville Unity Christian +12.60 19:00.00 18:47.40
Kyle Evans DeWitt -48.90 18:48.00 19:36.90
Luke Bailey Grand Rapids Forest Hills Central +19.00 19:08.00 18:49.00
Israel Robles Lawrence -43.90 18:50.00 19:33.90
Spencer Andree Whitehall -2:35.80 18:51.00 21:26.80
Hunter Rosema Hesperia -21.10 18:51.00 19:12.10
Matt Dickerson Schoolcraft -34.60 18:51.00 19:25.60
Alison McLean Dexter -1.00 18:52.00 18:53.00
Marius Vanderhoff Portage Northern -32.60 18:52.00 19:24.60
Jesus Amado Ann Arbor Gabriel Richard -17.90 18:52.00 19:09.90
Marshall Lipe Bath -45.90 18:52.00 19:37.90
Justin Threatt Newaygo -11.70 18:52.00 19:03.70
Jared Bair Bear Lake +15.50 19:08.00 18:52.50
Allison Vroon Holland Black River +3.00 18:56.00 18:53.00
Dylan Miller Portage Northern -2:24.60 18:53.00 21:17.60
Jake VanEss Ionia -15.10 18:53.00 19:08.10
Miles Murphy Grand Rapids Catholic Central -25.00 18:54.00 19:19.00
Zachary Fenwick Vicksburg -17.30 18:54.00 19:11.30
Drew Brown Stevensville-Lakeshore -1:54.20 18:54.00 20:48.20
Tim Doetsch Napoleon -29.00 18:54.00 19:23.00
Ethan Lehman Creative Technical Academy -26.90 18:55.00 19:21.90
Lauren Biggs Ludington -5.00 18:56.00 19:01.00
Greg Olsen Coloma -2:40.10 18:56.00 21:36.10
John Sargent Grand Rapids Track Club -1:22.40 18:57.00 20:19.40
Reece Digiovanna Grand Rapids Catholic Central -39.40 18:58.00 19:37.40
Aidan Edmunds Holland Christian -30.20 18:58.00 19:28.20
Noah Genson Mason County Central -30.70 18:58.00 19:28.70
Julian Torres Lawton +46.30 19:45.00 18:58.70
Jessica Gockley Traverse City West +39.00 19:38.00 18:59.00
Darvious Wallace Kalamazoo Loy Norrix +3.00 19:02.00 18:59.00
Jacob Bol Holland Christian -50.00 18:59.00 19:49.00
Luke Gilliland Leslie -10.80 18:59.00 19:09.80
Shelby Waterson DeWitt -40.00 19:00.00 19:40.00
Odessa Britman Parchment +37.30 19:38.00 19:00.70
Adam Werkema Kentwood Grand River Preparatory -47.00 19:01.00 19:48.00
Joseph Lundquist Three Rivers -32.40 19:01.00 19:33.40
Bryce Schafer DeWitt -1:41.70 19:01.00 20:42.70
Carl Tanner Walkerville -1:44.10 19:01.00 20:45.10
Caleb Eckl Grand Rapids Track Club -43.80 19:01.00 19:44.80
Olivia Schroder Caledonia -57.00 19:02.00 19:59.00
Tommy Kelley Grant +2.20 19:05.00 19:02.80
Morgan Benoit Rockford +44.00 19:47.00 19:03.00
Alex Rush Hillsdale Academy -14.90 19:04.00 19:18.90
Tyrus Zenner Kingsley -54.90 19:05.00 19:59.90
Rachel Warners Grand Rapids Christian +13.00 19:18.00 19:05.00
Gabrielle Perrin Vicksburg +12.00 19:17.00 19:05.00
Mitch Butlevics Grand Rapids Forest Hills Central +21.40 19:27.00 19:05.60
Rachael Weber Hopkins +1:12.00 20:18.00 19:06.00
Nathan Chatman Galesburg-Augusta -3:26.60 19:06.00 22:32.60
Jon Amland Blanchard Montabella -2:17.70 19:06.00 21:23.70
Zeke Tomblin Napoleon -30.90 19:07.00 19:37.90
Anthony Olexa Breckenridge -35.00 19:07.00 19:42.00
Graceanne Tarsa Traverse City Central +9.00 19:17.00 19:08.00
Isaac Evans DeWitt -31.70 19:08.00 19:39.70
Abby Rentschler Saline +1:58.00 21:07.00 19:09.00
Taylor Thrush Shepherd -23.00 19:09.00 19:32.00
Brandon Close Brownstown Woodhaven -1:35.00 19:09.00 20:44.00
Nathaniel Wadas South Haven -1:11.10 19:09.00 20:20.10
Dakota Dietz DeWitt -1:10.70 19:09.00 20:19.70
Ben Carpenter Marcellus -2:09.20 19:09.00 21:18.20
Kevin Knox Edwardsburg -3.60 19:10.00 19:13.60
Nick Vazquez Lawrence +8.90 19:19.00 19:10.10
Emmalyne Tarsa Traverse City Central -37.00 19:11.00 19:48.00
Layna Steele Vicksburg -22.00 19:11.00 19:33.00
Zack Boller Leslie -2:30.40 19:11.00 21:41.40
Tj Krawczyk Kalamazoo Hackett -1:51.70 19:11.00 21:02.70
Nick Wirpio Grass Lake +34.80 19:46.00 19:11.20
Jenna Magness Grand Ledge -1:42.00 19:12.00 20:54.00
Mitchel Brooks Mason -1:28.10 19:12.00 20:40.10
Caitlin Clark Jackson Lumen Christi +39.00 19:53.00 19:14.00
Lily Fell Richland Gull Lake -34.00 19:14.00 19:48.00
Noah Beegle Constantine -10.10 19:14.00 19:24.10
Austin Ebrecht Coloma -50.90 19:14.00 20:04.90
Maya Hector Whitehall -2:11.00 19:15.00 21:26.00
Claire Brouwer Grand Rapids Christian -47.00 19:15.00 20:02.00
Aubrey Penn Jackson Lumen Christi -37.00 19:15.00 19:52.00
Logan Thomas Byron Center +16.50 19:32.00 19:15.50
Dan Lock Traverse City Grand Traverse Academy +4.50 19:20.00 19:15.50
Natalie Napolillo Rockford +10.00 19:26.00 19:16.00
Megan Schenkel Grand Rapids Christian -1:29.00 19:17.00 20:46.00
Mike Wertheimer Clare -41.70 19:17.00 19:58.70
Jackie Seward Muskegon Mona Shores +15.00 19:33.00 19:18.00
Olivia Bordewyk Caledonia -22.00 19:18.00 19:40.00
Christian Turner Traverse City Grand Traverse Academy -32.90 19:18.00 19:50.90
Allison Utting Grandville -1:08.00 19:19.00 20:27.00
Nathan Blighton Eau Claire -1:11.50 19:19.00 20:30.50
Freddie Burchett Hartford +10.80 19:30.00 19:19.20
Haley Dack Leslie +14.00 19:34.00 19:20.00
Quintin Lee Leslie -3:38.00 19:20.00 22:58.00
Andrea Jagielski Hillsdale Academy +17.00 19:39.00 19:22.00
Abby Fifarek Traverse City Grand Traverse Academy -1:40.00 19:22.00 21:02.00
Chase Pitcher Charyl Stockwell Academy -7.70 19:22.00 19:29.70
Ellie Taylor Traverse City Central -2:01.00 19:24.00 21:25.00
Alexa Vanderhoff Portage Northern +43.00 20:09.00 19:26.00
Nathan Kipp Breckenridge -1:15.00 19:26.00 20:41.00
Brad Wynalda Grand Rapids NorthPointe Christian +0.90 19:27.00 19:26.10
Vanessa Veersma St. Joseph -58.00 19:27.00 20:25.00
Katelyn Hutchinson Shepherd +9.00 19:37.00 19:28.00
Dallas Miller Newaygo +25.90 19:54.00 19:28.10
Emma Doorn Grandville Calvin Christian -16.00 19:29.00 19:45.00
Larissa Medich Rockford -18.00 19:31.00 19:49.00
Madison Marciniak Bay City Western -13.00 19:31.00 19:44.00
Stephanie Schaub Benzie Central -21.00 19:31.00 19:52.00
Davis Dickerson Three Rivers -41.20 19:32.00 20:13.20
Jeffrey Bos North Muskegon -2:06.20 19:33.00 21:39.20
Christian Foreman Muskegon Western Michigan Christian +3.40 19:37.00 19:33.60
Laura Estrada Bay City Western -24.00 19:34.00 19:58.00
Alexandra Ammann Dexter -3.00 19:34.00 19:37.00
Madyson Basch Traverse City Central -1:11.00 19:34.00 20:45.00
Tegan Jackson Kentwood Grand River Preparatory -17.00 19:34.00 19:51.00
Annie Fanta Bath +35.00 20:10.00 19:35.00
Ally Destefano Grand Rapids Forest Hills Central -23.00 19:35.00 19:58.00
Roma Lucarelli Temperance-Bedford +29.00 20:05.00 19:36.00
Konrad Stein Kingsley -15.10 19:37.00 19:52.10
Seth Ferguson Marlette +8.10 19:47.00 19:38.90
Mckenzie Smoyer Napoleon + 19:39.00 19:39.00
Rachel Boulton Temperance-Bedford +2:04.00 21:44.00 19:40.00
Emily Starck Remus Chippewa Hills -1:01.00 19:40.00 20:41.00
Avery Lowe North Muskegon -47.00 19:40.00 20:27.00
Connor Durow North Muskegon -51.60 19:40.00 20:31.60
Lucy Ankenbauer Kalamazoo Hackett +24.00 20:05.00 19:41.00
Avley Hentschel Whitehall -26.00 19:41.00 20:07.00
Zack Kemp Grand Ledge -1:19.20 19:41.00 21:00.20
Katya Bohatch Grand Rapids Forest Hills Northern +14.00 19:56.00 19:42.00
Jordan Lee DeWitt -29.00 19:42.00 20:11.00
Sam Hardy North Muskegon -58.50 19:42.00 20:40.50
Ava Strenge Battle Creek St. Philip -3.00 19:43.00 19:46.00
Dakota Miller Hopkins -1:38.80 19:43.00 21:21.80
Cody Smith Kent City -2:09.40 19:43.00 21:52.40
Nick Heilman Big Rapids Crossroads Charter +22.80 20:06.00 19:43.20
Isabella Garcia Pinckney -44.00 19:44.00 20:28.00
Maria Kuiper Holland Christian -30.00 19:45.00 20:15.00
Scott Schueneman Stevensville-Lakeshore -1:08.40 19:46.00 20:54.40
John Stehouwer Kalamazoo Christian -59.50 19:46.00 20:45.50
Maggie Farrell Battle Creek Lakeview -1:30.00 19:47.00 21:17.00
Jordan Mattarella Traverse City Central -7.00 19:48.00 19:55.00
Kaleb Berry Stevensville-Lakeshore -10.40 19:48.00 19:58.40
Reese Sample Coloma -2:29.20 19:48.00 22:17.20
Ezra Amstutz Constantine -1.00 19:49.00 19:50.00
Joel Macyauski Lawrence -34.10 19:50.00 20:24.10
Josephine Fiore Kalamazoo Loy Norrix -1:07.00 19:50.00 20:57.00
Lyric Bronkema Byron Center -27.00 19:50.00 20:17.00
Sofia Phaneuf Grand Rapids West Catholic +1:15.00 21:05.00 19:50.00
Morgan Markel St. Clair +1:01.00 20:51.00 19:50.00
Anna Laffrey East Grand Rapids +31.00 20:22.00 19:51.00
Katherine Weinbrecht Hastings -2:12.00 19:51.00 22:03.00
Maddie McCahill East Grand Rapids -1:31.00 19:52.00 21:23.00
Grant Burton Remus Chippewa Hills -2:07.60 19:52.00 21:59.60
Isaac Nausadis Newaygo -1:57.50 19:52.00 21:49.50
Jessica Stroede Hanover-Horton -2:59.00 19:53.00 22:52.00
Hunter Chovanec Breckenridge +31.80 20:25.00 19:53.20
Becca Solberg East Grand Rapids +19.00 20:13.00 19:54.00
Rebecca Estep Bay City Western -16.00 19:55.00 20:11.00
Shayne Mann Cedar Springs -2:04.00 19:55.00 21:59.00
Christian Halquist Kentwood Grand River Preparatory -1:48.30 19:55.00 21:43.30
Justin Wade Decatur -25.10 19:56.00 20:21.10
Jensen Mceldowney Jackson Lumen Christi -36.00 19:57.00 20:33.00
Marilyn Gallegos Bangor +1:27.00 21:25.00 19:58.00
Mikayla Hostetler Richland Gull Lake +39.00 20:38.00 19:59.00
Clayton Conner Hopkins -50.00 19:59.00 20:49.00
Jordan Holscher Linden -7.00 19:59.00 20:06.00
Mckaya Groenwald Bear Lake -52.00 19:59.00 20:51.00
Haleigh Cummings Saline -4.00 20:01.00 20:05.00
Kaitlyn Rademacher Ionia -1:05.00 20:03.00 21:08.00
Shaylin Hollis Jenison -1:02.00 20:04.00 21:06.00
Natalie Purcell Flint Powers Catholic -3:01.00 20:04.00 23:05.00
Emma Fifarek Traverse City Grand Traverse Academy -2:17.00 20:04.00 22:21.00
Jake Kerstetter Grass Lake +2.20 20:07.00 20:04.80
Jake Spitsbergen Parchment +37.00 20:42.00 20:05.00
Jonah Harman Hillsdale Academy -54.70 20:05.00 20:59.70
Joel Bucao Blanchard Montabella +25.10 20:31.00 20:05.90
Kylie Schafer Remus Chippewa Hills +18.00 20:24.00 20:06.00
Nathan Timmer Allendale -16.10 20:06.00 20:22.10
Olivia Conway Grand Ledge -39.00 20:06.00 20:45.00
Ben Swanson Kent City +9.30 20:16.00 20:06.70
Logan St. John Remus Chippewa Hills +3.20 20:10.00 20:06.80
Alyssa Schwartz Grand Rapids South Christian -47.00 20:07.00 20:54.00
Lauryn Thompson Kalamazoo Hackett -37.00 20:07.00 20:44.00
Kate Krug East Grand Rapids +42.00 20:50.00 20:08.00
Amanda Montgomery Grand Rapids South Christian -1:02.00 20:08.00 21:10.00
Sydney Del Valle Holland Black River -39.00 20:08.00 20:47.00
Emily Merten Walkerville -12.00 20:08.00 20:20.00
Riley Rutherford Battle Creek St. Philip -1:49.00 20:08.00 21:57.00
Kayla Gercak Portage Northern -15.00 20:10.00 20:25.00
Nathan Morgan Charyl Stockwell Academy -5.40 20:10.00 20:15.40
Kensington Garvey Blanchard Montabella +44.00 20:54.00 20:10.00
Emily Hamlin Portage Northern -1:22.00 20:12.00 21:34.00
Amanda Sorokin Caledonia -1:19.00 20:12.00 21:31.00
Grace Rumler Ann Arbor Gabriel Richard -1:18.00 20:12.00 21:30.00
Leta Larsen Mason County Central -1.00 20:12.00 20:13.00
Savannah Ferrara Linden -1.00 20:13.00 20:14.00
Nick Quinn Mason -1:37.70 20:13.00 21:50.70
Lacie Piekarski Spring Lake +4.00 20:18.00 20:14.00
Emily O'leary Traverse City West +2:03.00 22:17.00 20:14.00
Hannah Hazelbach Caledonia -2:33.00 20:14.00 22:47.00
Dj Bosse Edwardsburg -29.30 20:14.00 20:43.30
Garret Green Comstock +23.50 20:38.00 20:14.50
Kit Huffman Saugatuck +1:30.00 21:45.00 20:15.00
Molly Weir Rockford -15.00 20:15.00 20:30.00
Hannah Kenny Grand Haven -9.00 20:15.00 20:24.00
Abigail Bowman Grand Rapids Forest Hills Eastern -16.00 20:15.00 20:31.00
Paige O'connor Richland Gull Lake +42.00 20:58.00 20:16.00
Charlotte Etienne East Grand Rapids -1:47.00 20:16.00 22:03.00
Julia Vanitvelt Flint Powers Catholic +10.00 20:28.00 20:18.00
Scotty Baldwin Clare +5.00 20:23.00 20:18.00
Mikayla Rowden Grand Haven -2:00.00 20:18.00 22:18.00
Rachel Gohn Allendale -26.00 20:18.00 20:44.00
Alex Richardson West Michigan Aviation Academy -31.80 20:18.00 20:49.80
Ben Marsh Jonesville -31.00 20:18.00 20:49.00
Megan Heft Hopkins -2.00 20:19.00 20:21.00
Allison Coipel Grandville Calvin Christian -1:39.00 20:20.00 21:59.00
Taylor Ganger Linden -1:00.00 20:21.00 21:21.00
Emily Yoxheimer Jackson Lumen Christi -59.00 20:21.00 21:20.00
Ally Stapleton Grand Rapids Forest Hills Central +8.00 20:30.00 20:22.00
Sergei Kelley Traverse City Grand Traverse Academy -2.00 20:22.00 20:24.00
Kendall Cassella Okemos -1:37.00 20:23.00 22:00.00
Brock Mueller Delton Kellogg +3.30 20:27.00 20:23.70
Catherine Stone Pinckney -11.00 20:24.00 20:35.00
Eric Hoeberling Delton Kellogg +19.40 20:44.00 20:24.60
Kyria Shoemaker Capital Homeschool +48.00 21:13.00 20:25.00
Kylie Hutchinson Shepherd +44.00 21:09.00 20:25.00
Parker Talent Delton Kellogg -4:44.80 20:25.00 25:09.80
Miedema Kennedy Hopkins +23.00 20:49.00 20:26.00
Sarah Sikkema Richland Gull Lake +37.00 21:03.00 20:26.00
Quinn Hall Traverse City West +48.00 21:14.00 20:26.00
David Shane Stevensville-Lakeshore +7.20 20:34.00 20:26.80
Autumn Lewis Carleton Airport -45.00 20:27.00 21:12.00
Matt Mitchell Buchanan +36.20 21:04.00 20:27.80
Courtney Davis Linden +1.00 20:29.00 20:28.00
Haley Ritsema Grand Rapids South Christian -58.00 20:28.00 21:26.00
Keena Gilbert Bear Lake +5.00 20:34.00 20:29.00
Katie Allen Grand Rapids Forest Hills Central +13.00 20:42.00 20:29.00
Miranda Hamman Napoleon -43.00 20:29.00 21:12.00
Logan Eaves Hesperia -4.50 20:30.00 20:34.50
Jennifer Bos Grandville Calvin Christian +12.00 20:42.00 20:30.00
Charlotte Read Dexter -28.00 20:31.00 20:59.00
Annemarie Maher Grand Ledge -2:11.00 20:31.00 22:42.00
Mary Terhune Culver Academies -34.00 20:31.00 21:05.00
Stephanie Ma Culver Academies -47.00 20:31.00 21:18.00
Kenadee Shugars Montague -7.00 20:31.00 20:38.00
Mara Johnson Capital Homeschool -31.00 20:31.00 21:02.00
Elizabeth Greve Dexter -11.00 20:32.00 20:43.00
Abby Van Volkenberg Pinckney -46.00 20:32.00 21:18.00
Robin Declercq Kalamazoo Hackett -40.00 20:32.00 21:12.00
Catherine Stapleton Grand Rapids Forest Hills Central -3.00 20:33.00 20:36.00
Daniela Sanchez-Martinez Holland Black River -44.00 20:33.00 21:17.00
Chloe Hoye Brownstown Woodhaven -9.00 20:35.00 20:44.00
Morgan Dennison Muskegon Mona Shores -25.00 20:35.00 21:00.00
Leaha Sinnaeve Mason -49.00 20:35.00 21:24.00
Maria Purcell Flint Powers Catholic -28.00 20:35.00 21:03.00
Maya Gossett Linden -1:06.00 20:35.00 21:41.00
Max Glynn Decatur -41.40 20:35.00 21:16.40
Mara McFarland Berrien Springs +44.00 21:20.00 20:36.00
Gabby Tavolacci Watervliet +2.00 20:38.00 20:36.00
Eliza Lowe Grand Haven -53.00 20:36.00 21:29.00
Aubrey Hemstreet Portage Central -53.00 20:37.00 21:30.00
Nick Belka Hopkins -19.60 20:37.00 20:56.60
Joshua Lee Kent City -49.30 20:37.00 21:26.30
Caleb Killinger Charyl Stockwell Academy -1:02.60 20:38.00 21:40.60
Alex Leach Frankenmuth -37.10 20:39.00 21:16.10
Timothy John Downs Kalamazoo Homeschool -1:32.70 20:39.00 22:11.70
Annie Shea Culver Academies -13.00 20:39.00 20:52.00
Brenna Wirth Pewamo-Westphalia -24.00 20:39.00 21:03.00
Salvatore Curcuru Charyl Stockwell Academy +20.40 21:00.00 20:39.60
Rebekka Golisch Grand Ledge -37.00 20:40.00 21:17.00
Grace Beversluis Grand Rapids Forest Hills Eastern -2:00.00 20:40.00 22:40.00
Chaney Manarin Hanover-Horton -24.00 20:40.00 21:04.00
Katie Theis Kalamazoo Homeschool -11.00 20:40.00 20:51.00
Corinne Schrotenboer Traverse City West +19.00 21:00.00 20:41.00
Aaron Lawrence Jonesville +29.50 21:12.00 20:42.50
Brooke Pitsch Grand Rapids West Catholic +1:02.00 21:45.00 20:43.00
Kayleigh Collins Hastings +5.00 20:48.00 20:43.00
Cecelia Batterbee Grand Rapids Forest Hills Central +12.00 20:55.00 20:43.00
Faith Kiprotich East Kentwood -1:26.00 20:43.00 22:09.00
Reesie Bohatch Grand Rapids Forest Hills Central -3:49.00 20:43.00 24:32.00
Alyssa Boeve Holland Christian -31.00 20:43.00 21:14.00
Ellie Best Portage Central -1:04.00 20:44.00 21:48.00
Brooke Carrier Spring Lake -23.00 20:45.00 21:08.00
Rachel Reiber Breckenridge +56.00 21:41.00 20:45.00
Sarah Resterhouse Muskegon Mona Shores +25.00 21:10.00 20:45.00
Rachel Mathers Shepherd +2.00 20:48.00 20:46.00
Mason Haas Marcellus +2:24.00 23:10.00 20:46.00
Rudy Joon Saugatuck -1:38.00 20:46.00 22:24.00
Bekah Vanderhelm Allendale -47.00 20:47.00 21:34.00
Megan Poole Hillsdale Academy +1:37.00 22:24.00 20:47.00
Adam Lucker Stevensville-Lakeshore +11.30 20:59.00 20:47.70
Kelli Smith Grand Rapids NorthPointe Christian -4.00 20:48.00 20:52.00
Audrey Pohl Pewamo-Westphalia +34.00 21:23.00 20:49.00
Megan Seromik Caledonia -42.00 20:49.00 21:31.00
Abigail Moeggenberg Shepherd -1:22.00 20:50.00 22:12.00
Alycia Peterson Bear Lake -1:01.00 20:51.00 21:52.00
Nina Sapienza Ann Arbor Gabriel Richard -18.00 20:52.00 21:10.00
Samuel Brouwer Kalamazoo Christian -21.30 20:52.00 21:13.30
Mackenzie Caranno Pinckney +1:20.00 22:13.00 20:53.00
Tea Greca Brownstown Woodhaven +3.00 20:56.00 20:53.00
Bailey Montgomery Grand Rapids South Christian -2.00 20:53.00 20:55.00
Candice Baker Grand Rapids South Christian -22.00 20:53.00 21:15.00
Sidney Towalski Monroe -1:12.00 20:55.00 22:07.00
Chloe Strach North Muskegon -20.00 20:55.00 21:15.00
Jacob Anderson Traverse City Grand Traverse Academy +0.10 20:56.00 20:55.90
Shelby Burnett Carleton Airport -1:16.00 20:56.00 22:12.00
Samantha Campbell Hanover-Horton -26.00 20:56.00 21:22.00
Kelsey Billingsley Bath -44.00 20:56.00 21:40.00
Jordan McGinnis Dexter -2.00 20:57.00 20:59.00
Nathan McLatcher Kalamazoo Homeschool -2:15.70 20:57.00 23:12.70
Casey Noack Stevensville-Lakeshore -4:17.70 20:57.00 25:14.70
Brittany Dawson Spring Lake -1:47.00 20:58.00 22:45.00
Morgan Burch Benzie Central -1:03.00 20:58.00 22:01.00
Gabby Brandonisio Concord -18.00 20:58.00 21:16.00
Hunter Crocker Buchanan +2:53.40 23:52.00 20:58.60
Mary Wheeler Bridgman +12.00 21:12.00 21:00.00
Hannah Matuz Kalamazoo Central -7.00 21:02.00 21:09.00
Mary Leighton Mendon + 21:03.00 21:03.00
Hayley Buckhout Richland Gull Lake -33.00 21:03.00 21:36.00
Joey Zito Delton Kellogg -22.40 21:03.00 21:25.40
Kevin Schafer Pewamo-Westphalia +5.20 21:09.00 21:03.80
Leanna Schafer Pewamo-Westphalia +22.00 21:26.00 21:04.00
Hayley Stone Monroe Jefferson -1:03.00 21:04.00 22:07.00
Sophie Morin Portage Northern -46.00 21:05.00 21:51.00
Claire Halpin Richland Gull Lake -1:18.00 21:05.00 22:23.00
Grace Glagola Ann Arbor Gabriel Richard +2.00 21:07.00 21:05.00
Victoria Thamann Vicksburg +44.00 21:49.00 21:05.00
Sarah Bellinger Shepherd +6.00 21:12.00 21:06.00
Alexis Lyons Mason -41.00 21:06.00 21:47.00
Mackenzie Kelly Marlette +8.00 21:15.00 21:07.00
Madison Pullen Grand Rapids Forest Hills Eastern +2.00 21:09.00 21:07.00
Lauren Allard Grand Rapids Forest Hills Eastern +36.00 21:43.00 21:07.00
Zoe Feighner Leslie -1:17.00 21:08.00 22:25.00
Olivia Nurenberg Pewamo-Westphalia -1.00 21:08.00 21:09.00
Libby Filice Leslie -40.00 21:09.00 21:49.00
Daniel Pearce Marcellus -20.60 21:10.00 21:30.60
Paige Hallstrom Temperance-Bedford -39.00 21:10.00 21:49.00
Laura Vanderploeg Hudsonville -21.00 21:10.00 21:31.00
Macayla Rhoda Schoolcraft +1:46.00 22:57.00 21:11.00
Inez Samuels Jenison -37.00 21:11.00 21:48.00
Brooke Bengel Pewamo-Westphalia -1:26.00 21:11.00 22:37.00
Stormi Samuels Jenison -52.00 21:12.00 22:04.00
Naomi Billings Ludington -46.00 21:12.00 21:58.00
Katherine Slajus Spring Lake +51.00 22:03.00 21:12.00
Zoie Gossett Hudsonville -41.00 21:13.00 21:54.00
Megan Riegle Battle Creek Lakeview -1:47.00 21:13.00 23:00.00
Hoban Isabela Grand Rapids Catholic Central -47.00 21:13.00 22:00.00
Sarah Kempa Hillsdale Academy -1:37.00 21:13.00 22:50.00
Katie Andrews Kalamazoo Central -2:12.00 21:14.00 23:26.00
Lauren Baustert Whitehall -3:15.00 21:14.00 24:29.00
Shelbi Dyke Allendale -1:44.00 21:15.00 22:59.00
Janelle Posthuma Grand Rapids Forest Hills Central -53.00 21:15.00 22:08.00
Brittany Pierce Leslie -11.00 21:15.00 21:26.00
Kristina Maki Portage Northern -42.00 21:16.00 21:58.00
Ian Mullis Battle Creek St. Philip -2:09.60 21:16.00 23:25.60
Teddy Mcneir Battle Creek St. Philip -3:36.70 21:16.00 24:52.70
Jenna Gales Mendon +32.00 21:49.00 21:17.00
Autumn Amormino Traverse City Grand Traverse Academy +4.00 21:21.00 21:17.00
Morgan Overweg Zeeland West +3.00 21:20.00 21:17.00
Anna Kahmark Portage Central -8.00 21:17.00 21:25.00
Phoebe Varney Temperance-Bedford -14.00 21:17.00 21:31.00
Nicole Bowsher Celina -17.00 21:18.00 21:35.00
Abby Hendrix South Haven -1.00 21:18.00 21:19.00
Abbie Smith Edwardsburg +1:34.00 22:54.00 21:20.00
Kaley Davis Byron Center -1:06.00 21:20.00 22:26.00
Lauren Myers Muskegon Western Michigan Christian -45.00 21:20.00 22:05.00
Alyssa Ohanesian Traverse City West -20.00 21:21.00 21:41.00
Lexi Kapla Jenison +45.00 22:06.00 21:21.00
Lydia Bekius Zeeland West +47.00 22:09.00 21:22.00
Lauren Wright Portage Central +20.00 21:42.00 21:22.00
Hannah Brown Clare -15.00 21:22.00 21:37.00
Annika Conter Muskegon Mona Shores +19.00 21:42.00 21:23.00
McKenna O'Shea Jackson Lumen Christi -48.00 21:23.00 22:11.00
Katie Powell Shepherd -9.00 21:23.00 21:32.00
Elsie Jorgensen Eau Claire -49.00 21:23.00 22:12.00
Nick Kridler Kent City -30.90 21:24.00 21:54.90
Renee Robinson Celina -18.00 21:24.00 21:42.00
Ana Swanson Kent City -25.00 21:24.00 21:49.00
VonEhr Karmyn Grand Rapids Catholic Central -9.00 21:25.00 21:34.00
Keerstyn Bonner Grandville Calvin Christian +10.00 21:35.00 21:25.00
Makenna Schwass Ludington +31.00 21:58.00 21:27.00
Emily Sinclair Grandville -1:10.00 21:27.00 22:37.00
Celeste Mathews Monroe Jefferson -14.00 21:28.00 21:42.00
Madison Stone Monroe Jefferson -7.00 21:28.00 21:35.00
Monica Leduc Flint Powers Catholic -23.00 21:28.00 21:51.00
Libby Springer Saugatuck -3.00 21:28.00 21:31.00
Jesscia Eddings Pinckney -6.00 21:30.00 21:36.00
Shanon Stenger Grand Rapids Catholic Central -2:45.00 21:30.00 24:15.00
Hannah Sperry Hesperia -44.00 21:30.00 22:14.00
Morgan McCormick Temperance-Bedford -1:23.00 21:32.00 22:55.00
Mackenzie Schmidt Spring Lake -21.00 21:32.00 21:53.00
Megan Grimes Delton Kellogg -1:47.00 21:32.00 23:19.00
Lynden Hamstra Jenison -44.00 21:33.00 22:17.00
Jessica Quist Hudsonville Unity Christian -1:31.00 21:33.00 23:04.00
Chelsey Feaganes Monroe Jefferson -1:13.00 21:33.00 22:46.00
Victoria Ross Hesperia -1:59.00 21:33.00 23:32.00
Faith Brown Bath +12.00 21:45.00 21:33.00
Daniel Humphries Grass Lake -2:49.00 21:33.00 24:22.00
Taylor Coyer Battle Creek Lakeview -3.00 21:34.00 21:37.00
Alex Morales Hartford +1:17.00 22:52.00 21:35.00
Kim Buskirk Blanchard Montabella -6.00 21:35.00 21:41.00
Tessa Vandewalker Holland Christian -15.00 21:36.00 21:51.00
Brittney Johnson Watervliet -33.00 21:36.00 22:09.00
Mickala Kohtz Wayland Union +52.00 22:28.00 21:36.00
Shannon Mcdonnell Jackson Lumen Christi +28.00 22:05.00 21:37.00
Sydney Coe Napoleon +48.00 22:25.00 21:37.00
Saskia Praamsma Holland Christian +19.00 21:56.00 21:37.00
Kiersten Reeves Ionia -2.00 21:37.00 21:39.00
Kaylee Shattuck Ionia -45.00 21:37.00 22:22.00
Erin Hacker Bay City Western -6.00 21:38.00 21:44.00
Carly Jenkins Breckenridge -1:24.00 21:38.00 23:02.00
Austin Macomber Grass Lake -54.70 21:38.00 22:32.70
Melissa Schott Bath +19.00 21:57.00 21:38.00
Regan Ora Grand Rapids Catholic Central -53.00 21:40.00 22:33.00
Sarah Dedolph Flint Powers Catholic -1:06.00 21:41.00 22:47.00
Katelyn Trevino Bath +25.00 22:07.00 21:42.00
Anna Lane Richland Gull Lake -35.00 21:43.00 22:18.00
Makenzie Harmon Clare -2:14.00 21:45.00 23:59.00
Hattie Foley Portage Central -1:46.00 21:46.00 23:32.00
Shaun Marie Banaszak Grand Rapids Catholic Central -27.00 21:46.00 22:13.00
Ally Marvel Cedar Springs -1:00.00 21:47.00 22:47.00
Sidney Mason Monroe Jefferson -1:37.00 21:47.00 23:24.00
Emily Gowin Hesperia -17.00 21:47.00 22:04.00
Tayah Schuette Hanover-Horton -9.00 21:47.00 21:56.00
Aalieyah Sargent Cedar Springs -27.00 21:48.00 22:15.00
Mackenzie Kribbet West Michigan Aviation Academy -31.00 21:48.00 22:19.00
Alyson Fink Bear Lake -27.00 21:48.00 22:15.00
Jordyn Sanders Mason County Central -3.00 21:50.00 21:53.00
Kylee Marcussen Potterville -2:33.00 21:50.00 24:23.00
Brogan Westra Holland Black River -2:39.00 21:51.00 24:30.00
Hannah Pifer Monroe Jefferson -46.00 21:53.00 22:39.00
Jade Melling Hanover-Horton -29.00 21:53.00 22:22.00
Jordan Burns Kalamazoo Homeschool -31.30 21:53.00 22:24.30
Breanna Varker Schoolcraft -34.00 21:54.00 22:28.00
Ayanna Williams Breckenridge -36.00 21:54.00 22:30.00
Autumn Green Monroe -1:50.00 21:55.00 23:45.00
Brittany Ludwig Wayland Union -18.00 21:55.00 22:13.00
Taryn Kilbane Hopkins -15.00 21:55.00 22:10.00
Brooke Schooley Hesperia +2:08.00 24:03.00 21:55.00
Alex Nuttull Montague +1:03.00 22:59.00 21:56.00
Margaret VanWylen Holland Christian -1:05.00 21:57.00 23:02.00
Katlyn DeWitt Holland Christian + 21:57.00 21:57.00
Riley Raburn Jackson Lumen Christi -14.00 21:57.00 22:11.00
Clay Sidenbender Edwardsburg -1:05.50 21:57.00 23:02.50
Madison Snoeyink Hopkins -2:00.00 21:58.00 23:58.00
Breunisje Kass-McGrady Muskegon Western Michigan Christian -1:08.00 21:58.00 23:06.00
Sloane Lynch Monroe -4.00 21:59.00 22:03.00
Catherine Hasted South Haven -59.00 21:59.00 22:58.00
Andrew Clark Marlette +43.60 22:43.00 21:59.40
Sarah MacLachlan Grand Rapids Catholic Central -1:25.00 22:00.00 23:25.00
Riley Shepherd Wayland Union -55.00 22:00.00 22:55.00
Sydnie Avery Saugatuck -3:21.00 22:00.00 25:21.00
Carolyn Kirchner Three Rivers -34.00 22:02.00 22:36.00
Eden Rosin Holland Black River -33.00 22:02.00 22:35.00
Asia Patterson Ludington +10.00 22:13.00 22:03.00
Emily Isenhoff Wayland Union +30.00 22:33.00 22:03.00
Mallori Palmer Grant -10.00 22:04.00 22:14.00
Rebecca Kettel Capital Homeschool -4:24.00 22:05.00 26:29.00
Brooke Armstrong Whitehall -4:57.00 22:06.00 27:03.00
Abby Laubaugh Hastings -2:28.00 22:07.00 24:35.00
Melody Perrin Fremont -1:19.00 22:09.00 23:28.00
Karri Shalosky Hillsdale Academy -42.00 22:09.00 22:51.00
Sidney Baxter Battle Creek Lakeview -38.00 22:11.00 22:49.00
Alex Bieri Hesperia +47.00 22:59.00 22:12.00
Tyler Schultz Grass Lake -3.40 22:12.00 22:15.40
Amanda Boelman Portage Central -45.00 22:14.00 22:59.00
Marissa Mohney Centreville -1:22.00 22:15.00 23:37.00
Martha Casiano Watervliet +23.00 22:40.00 22:17.00
Rain Barnes Three Rivers +28.00 22:46.00 22:18.00
Emily Walter Potterville +1:11.00 23:30.00 22:19.00
Taylor Elenbaas Zeeland West +1:14.00 23:33.00 22:19.00
Jacquelyn Frazier Stevensville-Lakeshore -1:01.00 22:20.00 23:21.00
Aislinn Droski Allendale +14.00 22:35.00 22:21.00
Isabella Vruwink Hudsonville Unity Christian -1:15.00 22:21.00 23:36.00
Callie Jones Mason +3.00 22:24.00 22:21.00
Michelle Jonik Ann Arbor Gabriel Richard + 22:22.00 22:22.00
Katelynn Welch Lawton -5:46.00 22:23.00 28:09.00
Jordyn Bradley Clare -1:30.00 22:23.00 23:53.00
Allison Lewis Edwardsburg +2:03.00 24:26.00 22:23.00
Carson Yenchar Ionia +38.00 23:02.00 22:24.00
Joslyn Fox Grand Rapids Catholic Central -2:04.00 22:24.00 24:28.00
Caroline Nguyen East Kentwood -1:10.00 22:26.00 23:36.00
Jessie Sullivan Bath -1.00 22:28.00 22:29.00
Mary Cappelletti Saugatuck -1:38.00 22:28.00 24:06.00
Alyssa Speelman Three Rivers +1:09.00 23:38.00 22:29.00
Hannah Adams Jonesville -23.00 22:29.00 22:52.00
Kelsey Schroeder Okemos -9.00 22:30.00 22:39.00
Kate Melvin Traverse City West -1.00 22:30.00 22:31.00
Kaycee Jackson Hesperia -1:06.00 22:30.00 23:36.00
Alyvia Karcher Blanchard Montabella +2:31.00 25:01.00 22:30.00
Carley Lott Lawton +40.00 23:10.00 22:30.00
Emma Boven Hudsonville Unity Christian -1:09.00 22:31.00 23:40.00
Rebecca Sizemore Kent City -1:47.00 22:31.00 24:18.00
Elysa Cole East Kentwood -56.00 22:32.00 23:28.00
Brynn Lobert Blanchard Montabella +13.00 22:45.00 22:32.00
Julia Holman Marlette +1:18.00 23:50.00 22:32.00
Abby Keessen Muskegon Mona Shores -1:58.00 22:33.00 24:31.00
Olivia VandePol Kalamazoo Loy Norrix +13.00 22:46.00 22:33.00
Lexi Wilhelmsen Marlette +16.00 22:50.00 22:34.00
Katelyn Rodriguez Grant +22.00 22:57.00 22:35.00
Chloe Kimes Mason County Central +16.00 22:52.00 22:36.00
Blake Kuzma Remus Chippewa Hills -43.00 22:37.00 23:20.00
Sylvia Knight Portage Central -3.00 22:39.00 22:42.00
Hannah Doederlein Carleton Airport -1:01.00 22:39.00 23:40.00
Nikki Shenker Stevensville-Lakeshore +1:00.00 23:40.00 22:40.00
Jacob Baylor Edwardsburg +1:37.20 24:19.00 22:41.80
Kate Kavanaugh Kalamazoo Homeschool +43.00 23:26.00 22:43.00
Madison Mcphee Clare -1:09.00 22:43.00 23:52.00
Brenden Ludlow Marcellus +28.60 23:15.00 22:46.40
Alaina Albert Napoleon +27.00 23:14.00 22:47.00
Jena Gaffner Hudsonville Unity Christian +2:31.00 25:18.00 22:47.00
Abigail Kueny Bangor -52.00 22:48.00 23:40.00
Piper Harris Saugatuck +9.00 22:58.00 22:49.00
Kristen Satkowiak Bay City Western -3:15.00 22:50.00 26:05.00
Josilyn Quimby Coldwater -48.00 22:50.00 23:38.00
Carolyn Hardman St. Joseph Lake Michigan Catholic -58.00 22:50.00 23:48.00
Savana Falls Leslie -12.00 22:52.00 23:04.00
Malorie Hulse Constantine -3.00 22:52.00 22:55.00
Tieler Faulkner Constantine -1:21.00 22:52.00 24:13.00
Mackenzie Walter Frankenmuth -1:25.00 22:53.00 24:18.00
Emily Pattok Hastings -1:03.00 22:54.00 23:57.00
Katie Geer Mason -1:06.00 22:55.00 24:01.00
Carli Bredice Bridgman -15.00 22:56.00 23:11.00
Maria Cotts Byron Center -1:53.00 22:57.00 24:50.00
Savannah Hayden Benzie Central -55.00 22:57.00 23:52.00
Hannah Campbell Kalamazoo Loy Norrix +1.00 23:00.00 22:59.00
Bailey Evans Watervliet +19.00 23:20.00 23:01.00
Samantha Ludlam Hopkins -28.00 23:01.00 23:29.00
Rachel Childs Hanover-Horton -6.00 23:05.00 23:11.00
Julia Sutter Mendon +1:16.00 24:22.00 23:06.00
Shayla Pham East Kentwood -2:01.00 23:07.00 25:08.00
Meagan Casterline Battle Creek St. Philip -1:17.00 23:09.00 24:26.00
Julianna Goodall South Haven +16.00 23:25.00 23:09.00
Samantha Vandermolen East Kentwood -3:03.00 23:10.00 26:13.00
Erin Krause Kalamazoo Central -35.00 23:11.00 23:46.00
Lydia Fedewa Capital Homeschool +43.00 23:55.00 23:12.00
Kaitlin Rich Kent City -2:04.00 23:12.00 25:16.00
Yadira Rodriguez Bangor -2.00 23:13.00 23:15.00
Abby Chapin Schoolcraft -1:20.00 23:15.00 24:35.00
Olivia Ritsema Battle Creek St. Philip -2:19.00 23:15.00 25:34.00
Renee Miller Marlette -1:19.00 23:17.00 24:36.00
Jack Webster North Muskegon -2:18.10 23:19.00 25:37.10
Sandra Cesco Concord -2:08.00 23:20.00 25:28.00
Brittany Udell Edwardsburg -29.00 23:22.00 23:51.00
Kristin Conner Lawton -1:08.00 23:22.00 24:30.00
Jessica Sherwood Grass Lake +15.00 23:40.00 23:25.00
Jennifer Rosario West Michigan Aviation Academy -1:10.00 23:28.00 24:38.00
Kaela Morlock Watervliet -14.00 23:30.00 23:44.00
Morgan McClure Stevensville-Lakeshore -2:18.00 23:32.00 25:50.00
Allison Graves Bridgman -1:28.00 23:34.00 25:02.00
Madolyn Clark Marlette -25.00 23:37.00 24:02.00
Michelle Alt Kent City +11.00 23:49.00 23:38.00
Kristen Miller Hillsdale Academy -4:59.00 23:39.00 28:38.00
Emily Lopez Edwardsburg + 23:42.00 23:42.00
Sarah Grace Roskos Capital Homeschool -1:55.00 23:42.00 25:37.00
Alyssa Burns Kalamazoo Homeschool -1:14.00 23:43.00 24:57.00
Christiana Heikoop Grand Rapids Track Club +1:29.00 25:16.00 23:47.00
Aubrey Herrema Byron Center -20.00 23:53.00 24:13.00
Kelly Haskins Coldwater +20.00 24:15.00 23:55.00
Jamie Barrett Three Rivers +23.00 24:22.00 23:59.00
Jade Prange Kingsley +31.00 24:34.00 24:03.00
Stephanie Olexa Breckenridge -1:41.00 24:09.00 25:50.00
Carli Shalosky Hillsdale Academy -30.00 24:10.00 24:40.00
Sami Sisson Marlette +7.00 24:19.00 24:12.00
Samantha Beebe Kalamazoo Christian +1:01.00 25:14.00 24:13.00
Katie Patterson Kalamazoo Christian -1:15.00 24:14.00 25:29.00
Elizabeth Hasted South Haven -1:24.00 24:20.00 25:44.00
Courtney Kangas St. Joseph Lake Michigan Catholic +1.00 24:21.00 24:20.00
Claire Harris Hastings +30.00 24:52.00 24:22.00
Sarah Hall Hartford +1:08.00 25:31.00 24:23.00
Jessica Chin Berrien Springs -3:50.00 24:23.00 28:13.00
Emily Cutting Cassopolis -1:40.00 24:33.00 26:13.00
Brianna Allen St. Joseph Lake Michigan Catholic +3:00.00 27:35.00 24:35.00
Taylor Schmidt Mendon +1:56.00 26:34.00 24:38.00
Rebecca Chupp Centreville +53.00 25:31.00 24:38.00
Alyssa Roels Grand Rapids NorthPointe Christian -11.00 24:40.00 24:51.00